Overview Statistics Trail Chart Weather Telemetry Raw packets
 

This is the latest recevied weather packets stored in our database for station/object HS3UAA-1. If no packets are shown the sender has not sent any weather packets the latest 10 day(s).

<< 90 91 92 93 94 95 96 >>
Time Temp. Humidity Pressure Rain* Wind** Luminosity Snow
1787917647 34.44° C 41% 994 hPa - - 0 W/m² -
1787917325 34.44° C 41% 994 hPa - - 0 W/m² -
1787917003 33.89° C 41% 994 hPa - - 0 W/m² -
1787916681 33.89° C 41% 994 hPa - - 0 W/m² -
1787916359 33.89° C 41% 994 hPa - - 0 W/m² -
1787916036 33.89° C 41% 994 hPa - - 0 W/m² -
1787915714 33.33° C 41% 994 hPa - - 0 W/m² -
1787915392 33.33° C 41% 994 hPa - - 0 W/m² -
1787915070 33.33° C 41% 994 hPa - - 0 W/m² -
1787914748 32.78° C 42% 994 hPa - - 0 W/m² -
1787914426 32.22° C 42% 994 hPa - - 0 W/m² -
1787914104 32.22° C 42% 994 hPa - - 0 W/m² -
1787913782 32.22° C 42% 993 hPa - - 0 W/m² -
1787913460 31.11° C 44% 993 hPa - - 0 W/m² -
1787913138 29.44° C 48% 993 hPa - - 0 W/m² -
1787912816 28.89° C 45% 993 hPa - - 0 W/m² -
1787912494 28.89° C 44% 993 hPa - - 0 W/m² -
1787912172 28.89° C 49% 993 hPa - - 0 W/m² -
1787911850 28.89° C 46% 993 hPa - - 0 W/m² -
1787911528 28.89° C 45% 993 hPa - - 0 W/m² -
1787910924 28.89° C 49% 993 hPa - - 0 W/m² -
1787910602 29.44° C 46% 993 hPa - - 0 W/m² -
1787910280 29.44° C 43% 993 hPa - - 0 W/m² -
1787909958 29.44° C 47% 993 hPa - - 0 W/m² -
1787909636 29.44° C 44% 993 hPa - - 0 W/m² -

* Rain since midnight (hover to see other rain measurements)
** Current wind speed in m/s (hover to see current wind gust speed)